Regional Weather Roundup
Issued by NWS New Orleans/Baton Rouge, LA

Home | Current Version | Previous Version | Graphics & Text | Print | Product List | Glossary On
Versions: 1 2 3 4 5 6 7 8 9 10 11 12 13 14 15 16 17 18 19 20 21 22 23 24 25 26 27 28 29 30 31 32 33 34 35 36 37 38 39 40 41 42 43 44 45 46 47 48 49 50
890
ASUS44 KLIX 230001
RWRLIX
NEW ORLEANS REGIONAL WEATHER ROUNDUP
NATIONAL WEATHER SERVICE NEW ORLEANS LA
700 PM CDT TUE APR 22 2014

NOTE: "FAIR" INDICATES FEW OR NO CLOUDS BELOW 12,000 FEET WITH NO
      SIGNIFICANT WEATHER AND/OR OBSTRUCTIONS TO VISIBILITY.
      SKY/WX - SKY CONDITION AND SIGNIFICANT WEATHER.
      TMP - AIR TEMPERATURE.     DP    - DEWPOINT TEMPERATURE.
      RH  - RELATIVE HUMIDITY.   PRES  - PRESSURE.
      HI  - HEAT INDEX.          WCI   - WIND CHILL INDEX.

*  THESE STATIONS ARE NOT NWS OR FAA STATIONS AND ARE NOT UNDER
   NWS QUALITY CONTROL.

LAZ038-040-048-061>063-065>067-069-230100-
SOUTHEAST LOUISIANA

CITY           SKY/WX    TMP DP  RH WIND       PRES   REMARKS
N.O. AUDUBON     N/A     76  67  73 MISG        N/A
6HR MIN TEMP:  70; 6HR MAX TEMP:  79;

N.O. INTL ARPT PTCLDY    75  66  73 NW3       29.88F
6HR MIN TEMP:  70; 6HR MAX TEMP:  78; 6HR PCP: TRACE;

N.O. LAKEFRONT MOCLDY    73  66  78 W9        29.88F
6HR MIN TEMP:  70; 6HR MAX TEMP:  75;

N.O. DOWNTOWN*   N/A     77  63  61 CALM      29.89S
6HR MIN TEMP:  72; 6HR MAX TEMP:  79;

SLIDELL        CLOUDY    75  65  70 NW3       29.87F
6HR MIN TEMP:  69; 6HR MAX TEMP:  78;

BATON ROUGE    PTCLDY    77  59  53 NW5       29.89F
6HR MIN TEMP:  75; 6HR MAX TEMP:  82;

BOOTHVILLE     PTCLDY    73  67  81 W7        29.89S
6HR MIN TEMP:  71; 6HR MAX TEMP:  73; 6HR PCP: TRACE;

BELLE CHASSE   PTCLDY    73  66  78 CALM      29.88F
6HR MIN TEMP:  71; 6HR MAX TEMP:  76;

BOGALUSA*        N/A     76  62  63 NW6       29.90R
6HR MIN TEMP:  75; 6HR MAX TEMP:  81;

GALLIANO*      NOT AVBL
NEW ROADS*     NOT AVBL
GONZALES*        N/A     77  62  59 N3        29.88S
6HR MIN TEMP:  69; 6HR MAX TEMP:  80;

HAMMOND*       NOT AVBL
HOUMA*         PTCLDY    75  64  69 W12       29.89F
PORT FOURCHON* CLEAR     73  68  83 W9        29.91F

$$

MSZ070-080>082-230100-
SOUTHERN MISSISSIPPI

CITY           SKY/WX    TMP DP  RH WIND       PRES   REMARKS
MCCOMB         CLEAR     74  61  63 NW6       29.90S
6HR MIN TEMP:  73; 6HR MAX TEMP:  77;

GULFPORT       MOCLDY    75  65  70 SW5       29.86F
6HR MIN TEMP:  74; 6HR MAX TEMP:  79;

BILOXI         NOT AVBL
PASCAGOULA     MOCLDY    71  65  81 SW3       29.87F
6HR MIN TEMP:  71; 6HR MAX TEMP:  80;

STENNIS ARPT*  PTCLDY    75  63  64 CALM      29.87F

$$

COASTAL OBSERVATIONS
LAKE AND NEARSHORE STATIONS

STATION/POSITION TIME  TEMP    WIND        PRES    WAVE
                       AIR SEA DIR/SP/G            HT/PER
                 (UTC) (F)     (DEG/KT/KT) (MB)    (FT/S)
PASCAGOULA       2300   71     260/  9/ 12 1010.9
WAVELAND YACHT   2300   75 72  280/  5/ 11 1010.5
GRAND ISLE       2300   73 72  270/ 11/ 13 1012.7
SOUTHWEST PASS   2300   70 61  270/ 12/ 14 1012.8
NEW CANAL        2300   76 69  280/  3/  8 1012.2
SHELL BEACH      2300   75 67  250/  6/  8 1011.7

OFFSHORE STATIONS

STATION/POSITION TIME  TEMP    WIND        PRES    WAVE
                       AIR SEA DIR/SP/G            HT/PER
                 (UTC) (F)     (DEG/KT/KT) (MB)    (FT/S)

$$




USA.gov is the U.S. government's official web portal to all federal, state and local government web resources and services.